Location: Newark
(49.8969°N, 3.3422°E)
Time: 21:00:44
(UTC+00:00)

Vanguard 1 Rocket - Pass Details

Date: 25 January 2020
Orbit: 650 x 4226 km, 34.3° (Epoch: 26 February)

Event Time Altitude Azimuth Distance (km) Brightness Sun altitude
Rises 09:51:36 0° 226° (SW) 4,078 10.9 15.5°
Reaches altitude 10° 09:54:13 10° 216° (SW) 3,443 10.7 15.8°
Maximum altitude 10:02:06 33° 156° (SSE) 3,000 11.9 16.4°
Drops below altitude 10° 10:15:41 10° 101° (E) 5,980 12.2 17.4°
Sets 10:22:06 0° 94° (E) 7,559 12.5 17.8°
